Location: Baia Mare
(47.6567°N, 23.5850°E)
Time: 04:49:24
(UTC+02:00)

ISS - Pass Details

Date: 06 March 2019
Orbit: 412 x 421 km, 51.6° (Epoch: 23 November)

Event Time Altitude Azimuth Distance (km) Brightness Sun altitude
Exits shadow 06:06:55 11° 296° (WNW) 1,430 -1.6 -9.4°
Maximum altitude 06:09:59 44° 9° (N) 587 -2.9 -8.8°
Drops below altitude 10° 06:13:12 10° 83° (E) 1,490 0.7 -8.3°
Sets 06:15:22 0° 90° (E) 2,356 2.7 -7.9°
